StriX-5

operational
NORAD ID: 65971 Int'l Des: 2025-229 Owner: SYNSP Country: J
LEOCIRCULAR

关于 StriX-5

正在加载描述...

实时位置

正在加载3D地球...

即将过境

高度历史

Altitude vs Time

uPlot chart will show altitude changes over time

两行轨道根数

1 65971U 25229A 25293.36688585 .00010985 00000-0 83212-3 0 9990
2 65971 41.9274 174.6256 0041137 283.1965 76.4273 15.01560106 888
Epoch: Oct 20, 2025 • Age: 11 hours

当前状态

高度 548.5 km
速度 7.60 km/s
星下点 -41.68°S, 109.73°E
发射日期 Oct 14, 2025
运行时间 6 days
类型 other

技术详情

分类 Payload
质量 150.00 kg
干质量 150.00 kg
总质量 150.00 kg
长度 0.70 m
直径 0.50 m
跨度 4.70 m
形状 Box + 2 pan
制造商 SYNSP
平台类型 StriX
阶段状态 In Orbit
所有者/国家 SYNSP/J

大型星座

Loading constellations...